Monterey, CA

1:56 PM PDT on September 29, 2016 (GMT -0700)
Monterey Peninsula

Weather History for KMRY - April, 2013

Change the Weather History Date:

Friday, April 12, 2013

  Actual Average Record
Temperature  
Mean Temperature 51 °F 54 °F  
Max Temperature 57 °F 61 °F 85 °F (2008)
Min Temperature 44 °F 47 °F 44 °F (1997)
Degree Days  
Heating Degree Days 14    
Month to date heating degree days 109  
Since 1 July heating degree days 2759  
Cooling Degree Days 0    
Month to date cooling degree days 0  
Year to date cooling degree days 0  
Moisture  
Dew Point 46 °F    
Average Humidity 78    
Maximum Humidity 89    
Minimum Humidity 67    
Precipitation  
Precipitation 0.00 in - 0.23 in (2012)
Month to date precipitation 0.29  
Year to date precipitation 3.08  
Since 1 July precipitation 11.32  
Sea Level Pressure  
Sea Level Pressure 29.95 in    
Wind  
Wind Speed 7 mph (SW)    
Max Wind Speed 16 mph    
Max Gust Speed 21 mph    
Visibility 8 miles    
Events      
T = Trace of Precipitation, MM = Missing Value Source: NWS Daily Summary

Daily Weather History Graph

Daily Weather History Graph

Search for Another Location

Airport or City:

Trip Planner

Search our weather history database for the weather conditions in past years. The results will help you decide how hot, cold, wet, or windy it might be!

Date:

Astronomy

Apr. 12, 2013 Rise Set
Actual Time 6:37 AM PDT 7:39 PM PDT
Civil Twilight 6:10 AM PDT 8:05 PM PDT
Nautical Twilight 5:39 AM PDT 8:37 PM PDT
Astronomical Twilight 5:06 AM PDT 9:10 PM PDT
Moon 7:54 AM PDT (4/12) 10:10 PM PDT (4/12)
Length of Visible Light 13h 55m
Length of Day
13h 02m
Waxing Crescent, 6% of the Moon is Illuminated
Apr 12
Waxing Crescent
Apr 18
First Quarter
Apr 25
Full
May 2
Last Quarter
May 9
New

Hourly Weather History & Observations

Time (PDT) Temp. Windchill Dew Point Humidity Pressure Visibility Wind Dir Wind Speed Gust Speed Precip Events Conditions
12:54 AM 50.0 °F - 45.0 °F 83% 29.98 in 7.0 mi WSW 9.2 mph 16.1 mph N/A   Overcast
1:54 AM 50.0 °F - 45.0 °F 83% 29.97 in 8.0 mi WSW 6.9 mph - N/A   Overcast
2:04 AM 50.0 °F - 44.6 °F 82% 29.93 in 8.0 mi WSW 9.2 mph - N/A   Overcast
2:54 AM 48.9 °F - 45.0 °F 86% 29.96 in 7.0 mi South 3.5 mph - N/A   Overcast
3:54 AM 48.9 °F - 44.1 °F 83% 29.92 in 10.0 mi Variable 5.8 mph - N/A   Scattered Clouds
4:54 AM 46.9 °F - 43.0 °F 86% 29.93 in 10.0 mi Calm Calm - N/A   Clear
5:54 AM 45.0 °F 42.6 °F 41.0 °F 86% 29.94 in 10.0 mi East 4.6 mph - N/A   Clear
6:02 AM 44.6 °F - 41.0 °F 87% 29.90 in 10.0 mi Calm Calm - N/A   Scattered Clouds
6:11 AM 44.6 °F 43.1 °F 41.0 °F 87% 29.90 in 10.0 mi East 3.5 mph - N/A   Mostly Cloudy
6:54 AM 45.0 °F 43.5 °F 41.0 °F 86% 29.95 in 10.0 mi East 3.5 mph - N/A   Overcast
7:54 AM 48.0 °F - 44.1 °F 86% 29.98 in 7.0 mi East 3.5 mph - N/A   Overcast
8:54 AM 50.0 °F - 46.9 °F 89% 29.99 in 4.0 mi Calm Calm - N/A   Overcast
9:46 AM 53.6 °F - 48.2 °F 82% 29.94 in 5.0 mi South 3.5 mph - N/A   Haze
9:54 AM 55.0 °F - 48.0 °F 77% 29.99 in 5.0 mi Calm Calm - N/A   Haze
10:50 AM 53.6 °F - 46.4 °F 77% 29.95 in 5.0 mi WNW 5.8 mph - N/A   Haze
10:54 AM 53.1 °F - 46.9 °F 80% 29.99 in 5.0 mi West 5.8 mph - N/A   Haze
11:21 AM 51.8 °F - 46.4 °F 82% 29.95 in 6.0 mi WNW 8.1 mph - N/A   Haze
11:54 AM 55.0 °F - 46.9 °F 74% 29.99 in 10.0 mi WNW 9.2 mph - N/A   Scattered Clouds
12:54 PM 55.0 °F - 46.9 °F 74% 29.97 in 8.0 mi WNW 10.4 mph - N/A   Partly Cloudy
1:54 PM 55.9 °F - 46.9 °F 72% 29.96 in 8.0 mi West 12.7 mph 20.7 mph N/A   Partly Cloudy
2:54 PM 55.9 °F - 46.9 °F 72% 29.95 in 8.0 mi West 11.5 mph - N/A   Scattered Clouds
3:54 PM 57.0 °F - 46.9 °F 69% 29.94 in 8.0 mi West 13.8 mph - N/A   Clear
4:54 PM 55.0 °F - 46.9 °F 74% 29.95 in 8.0 mi SW 12.7 mph - N/A   Scattered Clouds
5:52 PM 53.6 °F - 46.4 °F 77% 29.92 in 8.0 mi West 9.2 mph - N/A   Overcast
5:54 PM 54.0 °F - 46.9 °F 77% 29.96 in 8.0 mi WSW 10.4 mph - N/A   Overcast
6:37 PM 53.6 °F - 46.4 °F 77% 29.91 in 9.0 mi WSW 6.9 mph - N/A   Scattered Clouds
6:54 PM 53.1 °F - 46.0 °F 77% 29.94 in 9.0 mi SW 5.8 mph - N/A   Scattered Clouds
7:52 PM 51.8 °F - 46.4 °F 82% 29.91 in 9.0 mi SSW 5.8 mph - N/A   Mostly Cloudy
7:54 PM 51.1 °F - 46.0 °F 83% 29.95 in 9.0 mi SSW 8.1 mph - N/A   Mostly Cloudy
8:54 PM 50.0 °F - 46.0 °F 86% 29.96 in 9.0 mi SSW 6.9 mph - N/A   Overcast
9:36 PM 50.0 °F - 46.4 °F 87% 29.92 in 9.0 mi South 6.9 mph - N/A   Partly Cloudy
9:54 PM 50.0 °F - 46.0 °F 86% 29.96 in 9.0 mi South 5.8 mph - N/A   Mostly Cloudy
10:05 PM 50.0 °F - 46.4 °F 87% 29.93 in 9.0 mi SSW 6.9 mph - N/A   Scattered Clouds
10:54 PM 50.0 °F - 46.0 °F 86% 29.99 in 9.0 mi SSW 6.9 mph - N/A   Partly Cloudy
11:54 PM 48.9 °F - 45.0 °F 86% 29.99 in 10.0 mi SSW 5.8 mph - N/A   Mostly Cloudy